Time,TemperatureF,DewpointF,PressureIn,WindDirection,WindDirectionDegrees,WindSpeedMPH,WindSpeedGustMPH,Humidity,HourlyPrecipIn,Conditions,Clouds,dailyrainin,SoftwareType,DateUTC
2013-09-11 00:00:00,61.5,58.2,29.86,WNW,294,0.0,0.0,89,0.00,,,0.00,Wunderground v.1.15,2013-09-11 07:00:00,
2013-09-11 00:06:00,61.3,58.0,29.86,WNW,294,0.0,0.0,89,0.00,,,0.00,Wunderground v.1.15,2013-09-11 07:06:00,
2013-09-11 00:13:00,61.3,58.3,29.86,West,277,0.0,1.0,90,0.00,,,0.00,Wunderground v.1.15,2013-09-11 07:13:00,
2013-09-11 00:19:00,61.3,58.3,29.86,West,277,0.0,0.0,90,0.00,,,0.00,Wunderground v.1.15,2013-09-11 07:19:00,
2013-09-11 00:24:00,61.2,57.9,29.86,West,269,1.0,2.0,89,0.00,,,0.00,Wunderground v.1.15,2013-09-11 07:24:00,
2013-09-11 00:31:00,61.0,57.4,29.86,WSW,242,1.0,2.0,88,0.00,,,0.00,Wunderground v.1.15,2013-09-11 07:31:00,
2013-09-11 00:32:00,61.2,57.0,29.86,NNW,327,1.0,2.0,86,0.00,,,0.00,Wunderground v.1.15,2013-09-11 07:32:00,
2013-09-11 00:34:00,61.2,57.0,29.86,NW,316,1.0,2.0,86,0.00,,,0.00,Wunderground v.1.15,2013-09-11 07:34:00,
2013-09-11 00:36:00,61.2,57.0,29.86,NW,316,1.0,2.0,86,0.00,,,0.00,Wunderground v.1.15,2013-09-11 07:36:00,
2013-09-11 00:37:00,61.0,57.1,29.86,SW,228,2.0,3.0,87,0.00,,,0.00,Wunderground v.1.15,2013-09-11 07:37:00,
2013-09-11 00:43:00,61.0,56.8,29.86,NW,319,2.0,4.0,86,0.00,,,0.00,Wunderground v.1.15,2013-09-11 07:43:00,
2013-09-11 00:48:00,61.0,56.8,29.86,South,190,2.0,2.0,86,0.00,,,0.00,Wunderground v.1.15,2013-09-11 07:48:00,
2013-09-11 00:50:00,61.2,57.0,29.86,WNW,283,1.0,2.0,86,0.00,,,0.00,Wunderground v.1.15,2013-09-11 07:50:00,
2013-09-11 00:54:00,61.2,57.0,29.86,WNW,282,2.0,4.0,86,0.00,,,0.00,Wunderground v.1.15,2013-09-11 07:54:00,
2013-09-11 00:55:00,61.2,57.0,29.86,West,281,1.0,2.0,86,0.00,,,0.00,Wunderground v.1.15,2013-09-11 07:55:00,
2013-09-11 00:56:00,61.2,57.0,29.86,WNW,294,3.0,4.0,86,0.00,,,0.00,Wunderground v.1.15,2013-09-11 07:56:00,
2013-09-11 01:01:00,61.2,57.0,29.86,NW,309,1.0,4.0,86,0.00,,,0.00,Wunderground v.1.15,2013-09-11 08:01:00,
2013-09-11 01:02:00,61.0,57.1,29.86,NW,325,2.0,4.0,87,0.00,,,0.00,Wunderground v.1.15,2013-09-11 08:02:00,
2013-09-11 01:07:00,61.0,56.8,29.86,SW,225,3.0,4.0,86,0.00,,,0.00,Wunderground v.1.15,2013-09-11 08:07:00,
2013-09-11 01:12:00,61.2,56.7,29.86,NW,305,3.0,4.0,85,0.00,,,0.00,Wunderground v.1.15,2013-09-11 08:12:00,
2013-09-11 01:18:00,61.0,57.4,29.86,WNW,287,2.0,3.0,88,0.00,,,0.00,Wunderground v.1.15,2013-09-11 08:18:00,
2013-09-11 01:19:00,61.0,56.5,29.86,NNW,342,3.0,3.0,85,0.00,,,0.00,Wunderground v.1.15,2013-09-11 08:19:00,
2013-09-11 01:20:00,61.0,57.4,29.86,NW,314,2.0,2.0,88,0.00,,,0.00,Wunderground v.1.15,2013-09-11 08:20:00,
2013-09-11 01:25:00,61.2,57.0,29.86,WNW,297,2.0,3.0,86,0.00,,,0.00,Wunderground v.1.15,2013-09-11 08:25:00,
2013-09-11 01:26:00,61.0,57.4,29.86,NW,309,2.0,4.0,88,0.00,,,0.00,Wunderground v.1.15,2013-09-11 08:26:00,
2013-09-11 01:30:00,60.9,57.3,29.86,West,274,2.0,3.0,88,0.00,,,0.00,Wunderground v.1.15,2013-09-11 08:30:00,
2013-09-11 01:36:00,60.9,57.0,29.86,WNW,299,2.0,3.0,87,0.00,,,0.00,Wunderground v.1.15,2013-09-11 08:36:00,
2013-09-11 01:39:00,61.2,57.0,29.86,NW,316,0.0,0.0,86,0.00,,,0.00,Wunderground v.1.15,2013-09-11 08:39:00,
2013-09-11 01:42:00,60.9,57.0,29.86,WNW,299,1.0,1.0,87,0.00,,,0.00,Wunderground v.1.15,2013-09-11 08:42:00,
2013-09-11 01:45:00,61.2,57.0,29.86,WNW,303,0.0,3.0,86,0.00,,,0.00,Wunderground v.1.15,2013-09-11 08:45:00,
2013-09-11 01:50:00,61.2,57.0,29.86,WSW,254,2.0,4.0,86,0.00,,,0.00,Wunderground v.1.15,2013-09-11 08:50:00,
2013-09-11 01:57:00,61.0,57.1,29.86,NW,313,3.0,4.0,87,0.00,,,0.00,Wunderground v.1.15,2013-09-11 08:57:00,
2013-09-11 02:00:00,61.0,57.4,29.86,WNW,288,1.0,1.0,88,0.00,,,0.00,Wunderground v.1.15,2013-09-11 09:00:00,
2013-09-11 02:02:00,61.0,57.4,29.86,WNW,288,1.0,1.0,88,0.00,,,0.00,Wunderground v.1.15,2013-09-11 09:02:00,
2013-09-11 02:03:00,61.0,57.1,29.86,WNW,297,2.0,4.0,87,0.00,,,0.00,Wunderground v.1.15,2013-09-11 09:03:00,
2013-09-11 02:08:00,61.0,57.4,29.86,West,277,1.0,2.0,88,0.00,,,0.00,Wunderground v.1.15,2013-09-11 09:08:00,
2013-09-11 02:09:00,61.0,57.1,29.86,SW,235,2.0,2.0,87,0.00,,,0.00,Wunderground v.1.15,2013-09-11 09:09:00,
2013-09-11 02:14:00,61.0,57.4,29.86,West,275,2.0,3.0,88,0.00,,,0.00,Wunderground v.1.15,2013-09-11 09:14:00,
2013-09-11 02:16:00,60.9,57.3,29.86,SW,231,1.0,5.0,88,0.00,,,0.00,Wunderground v.1.15,2013-09-11 09:16:00,
2013-09-11 02:18:00,60.9,57.3,29.86,SW,231,1.0,5.0,88,0.00,,,0.00,Wunderground v.1.15,2013-09-11 09:18:00,
2013-09-11 02:21:00,61.0,57.4,29.86,NW,313,2.0,2.0,88,0.00,,,0.00,Wunderground v.1.15,2013-09-11 09:21:00,
2013-09-11 02:27:00,60.9,57.3,29.86,WSW,246,2.0,4.0,88,0.00,,,0.00,Wunderground v.1.15,2013-09-11 09:27:00,
2013-09-11 02:33:00,60.9,57.0,29.86,NW,318,2.0,3.0,87,0.00,,,0.00,Wunderground v.1.15,2013-09-11 09:33:00,
2013-09-11 02:39:00,60.9,57.0,29.86,WNW,299,1.0,1.0,87,0.00,,,0.00,Wunderground v.1.15,2013-09-11 09:39:00,
2013-09-11 02:45:00,60.9,57.0,29.86,WNW,299,0.0,1.0,87,0.00,,,0.00,Wunderground v.1.15,2013-09-11 09:45:00,
2013-09-11 02:51:00,61.0,57.1,29.86,WNW,290,1.0,3.0,87,0.00,,,0.00,Wunderground v.1.15,2013-09-11 09:51:00,
2013-09-11 02:56:00,61.0,57.1,29.86,WNW,288,1.0,3.0,87,0.00,,,0.00,Wunderground v.1.15,2013-09-11 09:56:00,
2013-09-11 03:02:00,61.0,57.4,29.86,West,271,1.0,1.0,88,0.00,,,0.00,Wunderground v.1.15,2013-09-11 10:02:00,
2013-09-11 03:09:00,60.9,57.3,29.86,West,278,1.0,1.0,88,0.00,,,0.00,Wunderground v.1.15,2013-09-11 10:09:00,
2013-09-11 03:19:00,60.9,57.3,29.86,WNW,301,1.0,1.0,88,0.00,,,0.00,Wunderground v.1.15,2013-09-11 10:19:00,
2013-09-11 03:25:00,60.9,57.3,29.86,WNW,282,0.0,1.0,88,0.00,,,0.00,Wunderground v.1.15,2013-09-11 10:25:00,
2013-09-11 03:31:00,60.9,57.3,29.87,WNW,282,0.0,0.0,88,0.00,,,0.00,Wunderground v.1.15,2013-09-11 10:31:00,
2013-09-11 03:37:00,60.9,57.3,29.87,West,275,0.0,0.0,88,0.00,,,0.00,Wunderground v.1.15,2013-09-11 10:37:00,
2013-09-11 03:43:00,60.9,57.3,29.87,West,275,0.0,2.0,88,0.00,,,0.00,Wunderground v.1.15,2013-09-11 10:43:00,
2013-09-11 03:49:00,60.9,57.3,29.87,NW,317,1.0,4.0,88,0.00,,,0.00,Wunderground v.1.15,2013-09-11 10:49:00,
2013-09-11 03:55:00,60.9,57.3,29.87,WNW,297,1.0,4.0,88,0.00,,,0.00,Wunderground v.1.15,2013-09-11 10:55:00,
2013-09-11 04:03:00,60.9,57.0,29.87,WNW,292,1.0,2.0,87,0.00,,,0.00,Wunderground v.1.15,2013-09-11 11:03:00,
2013-09-11 04:08:00,60.9,57.3,29.87,WNW,292,1.0,1.0,88,0.00,,,0.00,Wunderground v.1.15,2013-09-11 11:08:00,
2013-09-11 04:15:00,60.9,57.3,29.87,WNW,292,0.0,1.0,88,0.00,,,0.00,Wunderground v.1.15,2013-09-11 11:15:00,
2013-09-11 04:21:00,60.9,57.3,29.87,WNW,285,1.0,2.0,88,0.00,,,0.00,Wunderground v.1.15,2013-09-11 11:21:00,
2013-09-11 04:26:00,60.9,57.3,29.87,NW,319,2.0,4.0,88,0.00,,,0.00,Wunderground v.1.15,2013-09-11 11:26:00,
2013-09-11 04:32:00,60.9,57.3,29.87,NW,304,1.0,3.0,88,0.00,,,0.00,Wunderground v.1.15,2013-09-11 11:32:00,
2013-09-11 04:39:00,60.7,57.1,29.88,NW,304,1.0,1.0,88,0.00,,,0.00,Wunderground v.1.15,2013-09-11 11:39:00,
2013-09-11 04:45:00,60.7,57.1,29.88,NW,304,0.0,2.0,88,0.00,,,0.00,Wunderground v.1.15,2013-09-11 11:45:00,
2013-09-11 04:50:00,60.9,57.3,29.88,NW,304,0.0,0.0,88,0.00,,,0.00,Wunderground v.1.15,2013-09-11 11:50:00,
2013-09-11 04:57:00,60.9,57.3,29.88,WNW,296,0.0,1.0,88,0.00,,,0.00,Wunderground v.1.15,2013-09-11 11:57:00,
2013-09-11 05:03:00,60.9,57.3,29.88,NW,304,1.0,3.0,88,0.00,,,0.00,Wunderground v.1.15,2013-09-11 12:03:00,
2013-09-11 05:09:00,60.9,57.3,29.88,NW,306,1.0,2.0,88,0.00,,,0.00,Wunderground v.1.15,2013-09-11 12:09:00,
2013-09-11 05:14:00,60.9,57.3,29.89,WNW,297,1.0,2.0,88,0.00,,,0.00,Wunderground v.1.15,2013-09-11 12:14:00,
2013-09-11 05:21:00,60.9,57.3,29.89,WNW,297,0.0,1.0,88,0.00,,,0.00,Wunderground v.1.15,2013-09-11 12:21:00,
2013-09-11 05:26:00,60.9,57.3,29.89,WNW,297,0.0,1.0,88,0.00,,,0.00,Wunderground v.1.15,2013-09-11 12:26:00,
2013-09-11 05:33:00,60.9,57.3,29.89,WNW,297,0.0,0.0,88,0.00,,,0.00,Wunderground v.1.15,2013-09-11 12:33:00,
2013-09-11 05:38:00,60.9,57.3,29.89,WNW,297,0.0,0.0,88,0.00,,,0.00,Wunderground v.1.15,2013-09-11 12:38:00,
2013-09-11 05:45:00,60.9,57.3,29.89,WNW,297,0.0,2.0,88,0.00,,,0.00,Wunderground v.1.15,2013-09-11 12:45:00,
2013-09-11 05:51:00,60.9,57.0,29.90,WNW,297,0.0,0.0,87,0.00,,,0.00,Wunderground v.1.15,2013-09-11 12:51:00,
2013-09-11 05:57:00,60.9,57.3,29.90,WNW,297,0.0,0.0,88,0.00,,,0.00,Wunderground v.1.15,2013-09-11 12:57:00,
2013-09-11 06:03:00,60.9,57.3,29.90,WNW,297,0.0,0.0,88,0.00,,,0.00,Wunderground v.1.15,2013-09-11 13:03:00,
2013-09-11 06:09:00,60.9,57.3,29.91,WNW,297,0.0,0.0,88,0.00,,,0.00,Wunderground v.1.15,2013-09-11 13:09:00,
2013-09-11 06:15:00,60.9,57.6,29.91,WNW,297,0.0,0.0,89,0.00,,,0.00,Wunderground v.1.15,2013-09-11 13:15:00,
2013-09-11 06:21:00,60.9,57.6,29.91,WNW,297,0.0,0.0,89,0.00,,,0.00,Wunderground v.1.15,2013-09-11 13:21:00,
2013-09-11 06:27:00,60.9,57.6,29.91,WNW,297,0.0,0.0,89,0.00,,,0.00,Wunderground v.1.15,2013-09-11 13:27:00,
2013-09-11 06:33:00,60.9,57.6,29.91,WNW,297,0.0,0.0,89,0.00,,,0.00,Wunderground v.1.15,2013-09-11 13:33:00,
2013-09-11 06:39:00,60.9,57.6,29.91,WNW,297,0.0,0.0,89,0.00,,,0.00,Wunderground v.1.15,2013-09-11 13:39:00,
2013-09-11 06:44:00,60.9,57.6,29.91,WNW,297,0.0,0.0,89,0.00,,,0.00,Wunderground v.1.15,2013-09-11 13:44:00,
2013-09-11 06:51:00,60.9,57.6,29.92,WNW,297,0.0,0.0,89,0.00,,,0.00,Wunderground v.1.15,2013-09-11 13:51:00,
2013-09-11 06:57:00,60.9,57.6,29.92,WNW,297,0.0,0.0,89,0.00,,,0.00,Wunderground v.1.15,2013-09-11 13:57:00,
2013-09-11 07:03:00,60.9,57.6,29.92,WNW,297,0.0,0.0,89,0.00,,,0.00,Wunderground v.1.15,2013-09-11 14:03:00,
2013-09-11 07:08:00,60.9,57.6,29.92,WNW,297,0.0,0.0,89,0.00,,,0.00,Wunderground v.1.15,2013-09-11 14:08:00,
2013-09-11 07:15:00,60.9,57.6,29.92,WNW,297,0.0,0.0,89,0.00,,,0.00,Wunderground v.1.15,2013-09-11 14:15:00,
2013-09-11 07:21:00,60.9,57.6,29.92,WNW,297,0.0,0.0,89,0.00,,,0.00,Wunderground v.1.15,2013-09-11 14:21:00,
2013-09-11 07:27:00,60.9,57.3,29.93,WNW,297,0.0,0.0,88,0.00,,,0.00,Wunderground v.1.15,2013-09-11 14:27:00,
2013-09-11 07:32:00,61.0,57.1,29.93,WNW,297,0.0,0.0,87,0.00,,,0.00,Wunderground v.1.15,2013-09-11 14:32:00,
2013-09-11 07:39:00,61.0,57.1,29.93,WNW,297,0.0,0.0,87,0.00,,,0.00,Wunderground v.1.15,2013-09-11 14:39:00,
2013-09-11 07:45:00,61.2,57.3,29.93,WNW,297,0.0,0.0,87,0.00,,,0.00,Wunderground v.1.15,2013-09-11 14:45:00,
2013-09-11 07:50:00,61.2,57.3,29.93,WNW,297,0.0,0.0,87,0.00,,,0.00,Wunderground v.1.15,2013-09-11 14:50:00,
2013-09-11 07:57:00,61.3,57.4,29.93,WNW,297,0.0,0.0,87,0.00,,,0.00,Wunderground v.1.15,2013-09-11 14:57:00,
2013-09-11 08:03:00,61.3,57.4,29.93,WNW,297,0.0,0.0,87,0.00,,,0.00,Wunderground v.1.15,2013-09-11 15:03:00,
2013-09-11 08:09:00,61.5,57.6,29.93,WNW,297,0.0,0.0,87,0.00,,,0.00,Wunderground v.1.15,2013-09-11 15:09:00,
2013-09-11 08:14:00,61.6,57.4,29.94,NW,318,0.0,1.0,86,0.00,,,0.00,Wunderground v.1.15,2013-09-11 15:14:00,
2013-09-11 08:21:00,61.6,57.4,29.94,NW,318,0.0,0.0,86,0.00,,,0.00,Wunderground v.1.15,2013-09-11 15:21:00,
2013-09-11 08:27:00,61.8,57.6,29.94,NW,318,0.0,0.0,86,0.00,,,0.00,Wunderground v.1.15,2013-09-11 15:27:00,
2013-09-11 08:33:00,62.0,57.8,29.94,NW,318,0.0,0.0,86,0.00,,,0.00,Wunderground v.1.15,2013-09-11 15:33:00,
2013-09-11 08:38:00,62.0,57.4,29.94,NW,318,0.0,0.0,85,0.00,,,0.00,Wunderground v.1.15,2013-09-11 15:38:00,
2013-09-11 08:45:00,62.1,57.5,29.94,NW,318,0.0,0.0,85,0.00,,,0.00,Wunderground v.1.15,2013-09-11 15:45:00,
2013-09-11 08:51:00,62.3,57.7,29.94,WNW,298,0.0,2.0,85,0.00,,,0.00,Wunderground v.1.15,2013-09-11 15:51:00,
2013-09-11 08:56:00,62.1,57.5,29.94,WNW,298,0.0,2.0,85,0.00,,,0.00,Wunderground v.1.15,2013-09-11 15:56:00,
2013-09-11 09:02:00,62.1,57.2,29.94,WNW,288,0.0,0.0,84,0.00,,,0.00,Wunderground v.1.15,2013-09-11 16:02:00,
2013-09-11 09:09:00,62.1,57.5,29.94,WNW,288,0.0,0.0,85,0.00,,,0.00,Wunderground v.1.15,2013-09-11 16:09:00,
2013-09-11 09:15:00,62.3,57.4,29.94,West,263,0.0,2.0,84,0.00,,,0.00,Wunderground v.1.15,2013-09-11 16:15:00,
2013-09-11 09:20:00,62.3,57.1,29.95,West,263,0.0,0.0,83,0.00,,,0.00,Wunderground v.1.15,2013-09-11 16:20:00,
2013-09-11 09:27:00,62.3,57.1,29.95,WNW,302,1.0,2.0,83,0.00,,,0.00,Wunderground v.1.15,2013-09-11 16:27:00,
2013-09-11 09:33:00,62.3,57.1,29.95,WNW,302,1.0,1.0,83,0.00,,,0.00,Wunderground v.1.15,2013-09-11 16:33:00,
2013-09-11 09:39:00,62.4,56.8,29.95,WNW,293,0.0,1.0,82,0.00,,,0.00,Wunderground v.1.15,2013-09-11 16:39:00,
2013-09-11 09:44:00,62.4,57.2,29.95,WNW,293,0.0,1.0,83,0.00,,,0.00,Wunderground v.1.15,2013-09-11 16:44:00,
2013-09-11 09:51:00,62.6,57.0,29.95,SW,236,1.0,1.0,82,0.00,,,0.00,Wunderground v.1.15,2013-09-11 16:51:00,
2013-09-11 09:57:00,62.6,57.0,29.95,SW,225,1.0,1.0,82,0.00,,,0.00,Wunderground v.1.15,2013-09-11 16:57:00,
2013-09-11 10:03:00,62.7,57.1,29.96,WNW,300,0.0,4.0,82,0.00,,,0.00,Wunderground v.1.15,2013-09-11 17:03:00,
2013-09-11 10:09:00,62.9,57.3,29.96,NW,308,1.0,1.0,82,0.00,,,0.00,Wunderground v.1.15,2013-09-11 17:09:00,
2013-09-11 10:15:00,62.9,57.0,29.96,WSW,254,2.0,2.0,81,0.00,,,0.00,Wunderground v.1.15,2013-09-11 17:15:00,
2013-09-11 10:21:00,62.9,57.3,29.96,WSW,254,1.0,1.0,82,0.00,,,0.00,Wunderground v.1.15,2013-09-11 17:21:00,
2013-09-11 10:26:00,62.9,57.0,29.96,SW,227,1.0,3.0,81,0.00,,,0.00,Wunderground v.1.15,2013-09-11 17:26:00,
2013-09-11 10:32:00,63.1,57.2,29.96,WNW,289,0.0,1.0,81,0.00,,,0.00,Wunderground v.1.15,2013-09-11 17:32:00,
2013-09-11 10:39:00,63.4,57.5,29.96,WNW,286,0.0,0.0,81,0.00,,,0.00,Wunderground v.1.15,2013-09-11 17:39:00,
2013-09-11 10:45:00,63.5,57.2,29.96,WNW,303,0.0,3.0,80,0.00,,,0.00,Wunderground v.1.15,2013-09-11 17:45:00,
2013-09-11 10:50:00,63.5,57.2,29.96,WNW,302,0.0,0.0,80,0.00,,,0.00,Wunderground v.1.15,2013-09-11 17:50:00,
2013-09-11 10:57:00,63.7,57.4,29.96,WNW,296,1.0,2.0,80,0.00,,,0.00,Wunderground v.1.15,2013-09-11 17:57:00,
2013-09-11 11:03:00,63.7,57.4,29.96,WNW,292,2.0,2.0,80,0.00,,,0.00,Wunderground v.1.15,2013-09-11 18:03:00,
2013-09-11 11:08:00,64.0,57.7,29.96,WNW,292,1.0,1.0,80,0.00,,,0.00,Wunderground v.1.15,2013-09-11 18:08:00,
2013-09-11 11:15:00,64.3,57.6,29.96,WNW,292,0.0,3.0,79,0.00,,,0.00,Wunderground v.1.15,2013-09-11 18:15:00,
2013-09-11 11:21:00,64.3,57.3,29.96,WNW,292,1.0,1.0,78,0.00,,,0.00,Wunderground v.1.15,2013-09-11 18:21:00,
2013-09-11 11:27:00,64.3,57.6,29.96,West,261,1.0,4.0,79,0.00,,,0.00,Wunderground v.1.15,2013-09-11 18:27:00,
2013-09-11 11:32:00,64.3,57.6,29.96,WNW,289,2.0,2.0,79,0.00,,,0.00,Wunderground v.1.15,2013-09-11 18:32:00,
2013-09-11 11:39:00,64.3,57.6,29.96,West,273,2.0,2.0,79,0.00,,,0.00,Wunderground v.1.15,2013-09-11 18:39:00,
2013-09-11 11:45:00,64.5,57.5,29.96,WNW,300,2.0,3.0,78,0.00,,,0.00,Wunderground v.1.15,2013-09-11 18:45:00,
2013-09-11 11:50:00,64.7,57.7,29.96,North,355,2.0,2.0,78,0.00,,,0.00,Wunderground v.1.15,2013-09-11 18:50:00,
2013-09-11 11:57:00,65.0,58.0,29.96,SSW,210,2.0,4.0,78,0.00,,,0.00,Wunderground v.1.15,2013-09-11 18:57:00,
2013-09-11 12:03:00,65.0,58.0,29.96,WNW,292,2.0,6.0,78,0.00,,,0.00,Wunderground v.1.15,2013-09-11 19:03:00,
2013-09-11 12:09:00,65.2,58.2,29.96,SW,232,2.0,3.0,78,0.00,,,0.00,Wunderground v.1.15,2013-09-11 19:09:00,
2013-09-11 12:14:00,65.2,57.8,29.96,West,270,2.0,3.0,77,0.00,,,0.00,Wunderground v.1.15,2013-09-11 19:14:00,
2013-09-11 12:21:00,65.6,57.8,29.96,WNW,284,2.0,2.0,76,0.00,,,0.00,Wunderground v.1.15,2013-09-11 19:21:00,
2013-09-11 12:27:00,65.8,57.7,29.96,WNW,296,2.0,3.0,75,0.00,,,0.00,Wunderground v.1.15,2013-09-11 19:27:00,
2013-09-11 12:33:00,66.0,57.8,29.96,West,278,2.0,3.0,75,0.00,,,0.00,Wunderground v.1.15,2013-09-11 19:33:00,
2013-09-11 12:38:00,66.4,57.5,29.96,WSW,238,2.0,3.0,73,0.00,,,0.00,Wunderground v.1.15,2013-09-11 19:38:00,
2013-09-11 12:45:00,66.6,58.1,29.96,NW,308,2.0,8.0,74,0.00,,,0.00,Wunderground v.1.15,2013-09-11 19:45:00,
2013-09-11 12:51:00,66.8,57.9,29.96,ENE,58,3.0,3.0,73,0.00,,,0.00,Wunderground v.1.15,2013-09-11 19:51:00,
2013-09-11 12:57:00,67.1,58.2,29.96,WNW,290,3.0,6.0,73,0.00,,,0.00,Wunderground v.1.15,2013-09-11 19:57:00,
2013-09-11 13:02:00,67.3,58.0,29.96,WNW,293,3.0,6.0,72,0.00,,,0.00,Wunderground v.1.15,2013-09-11 20:02:00,
2013-09-11 13:09:00,67.3,58.0,29.96,WNW,292,2.0,4.0,72,0.00,,,0.00,Wunderground v.1.15,2013-09-11 20:09:00,
2013-09-11 13:15:00,67.1,57.8,29.96,West,281,3.0,5.0,72,0.00,,,0.00,Wunderground v.1.15,2013-09-11 20:15:00,
2013-09-11 13:20:00,67.4,58.1,29.96,WNW,284,3.0,5.0,72,0.00,,,0.00,Wunderground v.1.15,2013-09-11 20:20:00,
2013-09-11 13:27:00,67.9,58.1,29.95,WSW,247,3.0,5.0,71,0.00,,,0.00,Wunderground v.1.15,2013-09-11 20:27:00,
2013-09-11 13:33:00,68.4,58.2,29.95,NE,36,2.0,3.0,70,0.00,,,0.00,Wunderground v.1.15,2013-09-11 20:33:00,
2013-09-11 13:39:00,69.1,57.7,29.95,West,277,2.0,4.0,67,0.00,,,0.00,Wunderground v.1.15,2013-09-11 20:39:00,
2013-09-11 13:44:00,68.6,58.0,29.95,West,259,3.0,4.0,69,0.00,,,0.00,Wunderground v.1.15,2013-09-11 20:44:00,
2013-09-11 13:51:00,68.6,58.0,29.95,WNW,284,3.0,5.0,69,0.00,,,0.00,Wunderground v.1.15,2013-09-11 20:51:00,
2013-09-11 13:57:00,68.6,58.0,29.95,NNW,346,3.0,11.0,69,0.00,,,0.00,Wunderground v.1.15,2013-09-11 20:57:00,
2013-09-11 14:03:00,69.3,58.7,29.94,West,263,2.0,4.0,69,0.00,,,0.00,Wunderground v.1.15,2013-09-11 21:03:00,
2013-09-11 14:08:00,69.6,58.6,29.94,South,174,3.0,3.0,68,0.00,,,0.00,Wunderground v.1.15,2013-09-11 21:08:00,
2013-09-11 14:15:00,69.8,58.3,29.94,NW,318,3.0,6.0,67,0.00,,,0.00,Wunderground v.1.15,2013-09-11 21:15:00,
2013-09-11 14:21:00,69.9,58.9,29.94,NNE,26,3.0,5.0,68,0.00,,,0.00,Wunderground v.1.15,2013-09-11 21:21:00,
2013-09-11 14:26:00,70.6,58.7,29.94,SW,221,3.0,6.0,66,0.00,,,0.00,Wunderground v.1.15,2013-09-11 21:26:00,
2013-09-11 14:32:00,70.6,59.1,29.93,NNW,333,5.0,7.0,67,0.00,,,0.00,Wunderground v.1.15,2013-09-11 21:32:00,
2013-09-11 14:39:00,70.4,58.5,29.93,West,268,5.0,5.0,66,0.00,,,0.00,Wunderground v.1.15,2013-09-11 21:39:00,
2013-09-11 14:45:00,70.8,58.9,29.93,West,260,5.0,5.0,66,0.00,,,0.00,Wunderground v.1.15,2013-09-11 21:45:00,
2013-09-11 14:50:00,71.5,58.7,29.93,NW,314,4.0,5.0,64,0.00,,,0.00,Wunderground v.1.15,2013-09-11 21:50:00,
2013-09-11 14:57:00,71.3,58.5,29.93,WNW,303,3.0,5.0,64,0.00,,,0.00,Wunderground v.1.15,2013-09-11 21:57:00,
2013-09-11 15:03:00,70.9,59.0,29.93,West,263,4.0,6.0,66,0.00,,,0.00,Wunderground v.1.15,2013-09-11 22:03:00,
2013-09-11 15:09:00,70.4,58.9,29.93,West,267,5.0,5.0,67,0.00,,,0.00,Wunderground v.1.15,2013-09-11 22:09:00,
2013-09-11 15:14:00,70.9,58.5,29.93,WNW,282,3.0,5.0,65,0.00,,,0.00,Wunderground v.1.15,2013-09-11 22:14:00,
2013-09-11 15:21:00,71.8,58.5,29.93,West,271,3.0,3.0,63,0.00,,,0.00,Wunderground v.1.15,2013-09-11 22:21:00,
2013-09-11 15:27:00,71.5,58.7,29.92,NW,305,5.0,10.0,64,0.00,,,0.00,Wunderground v.1.15,2013-09-11 22:27:00,
2013-09-11 15:33:00,71.6,58.8,29.92,SW,225,5.0,5.0,64,0.00,,,0.00,Wunderground v.1.15,2013-09-11 22:33:00,
2013-09-11 15:38:00,72.1,58.8,29.92,ENE,69,4.0,4.0,63,0.00,,,0.00,Wunderground v.1.15,2013-09-11 22:38:00,
2013-09-11 15:45:00,72.5,58.7,29.92,WSW,249,3.0,7.0,62,0.00,,,0.00,Wunderground v.1.15,2013-09-11 22:45:00,
2013-09-11 15:51:00,72.0,59.2,29.92,NE,53,4.0,6.0,64,0.00,,,0.00,Wunderground v.1.15,2013-09-11 22:51:00,
2013-09-11 15:56:00,72.5,58.7,29.92,NW,311,4.0,6.0,62,0.00,,,0.00,Wunderground v.1.15,2013-09-11 22:56:00,
2013-09-11 16:02:00,72.0,59.2,29.92,West,280,4.0,5.0,64,0.00,,,0.00,Wunderground v.1.15,2013-09-11 23:02:00,
2013-09-11 16:09:00,71.8,59.0,29.91,NW,311,5.0,5.0,64,0.00,,,0.00,Wunderground v.1.15,2013-09-11 23:09:00,
2013-09-11 16:15:00,71.5,58.7,29.91,NW,317,5.0,5.0,64,0.00,,,0.00,Wunderground v.1.15,2013-09-11 23:15:00,
2013-09-11 16:20:00,71.1,58.7,29.91,WNW,286,5.0,7.0,65,0.00,,,0.00,Wunderground v.1.15,2013-09-11 23:20:00,
2013-09-11 16:27:00,71.8,58.5,29.91,WNW,282,4.0,7.0,63,0.00,,,0.00,Wunderground v.1.15,2013-09-11 23:27:00,
2013-09-11 16:33:00,72.3,58.5,29.91,NE,51,3.0,4.0,62,0.00,,,0.00,Wunderground v.1.15,2013-09-11 23:33:00,
2013-09-11 16:39:00,72.7,58.9,29.91,NW,311,3.0,3.0,62,0.00,,,0.00,Wunderground v.1.15,2013-09-11 23:39:00,
2013-09-11 16:45:00,72.5,59.2,29.91,North,355,4.0,7.0,63,0.00,,,0.00,Wunderground v.1.15,2013-09-11 23:45:00,
2013-09-11 16:51:00,72.1,58.8,29.91,WNW,292,4.0,9.0,63,0.00,,,0.00,Wunderground v.1.15,2013-09-11 23:51:00,
2013-09-11 16:57:00,71.1,59.2,29.91,West,269,5.0,9.0,66,0.00,,,0.00,Wunderground v.1.15,2013-09-11 23:57:00,
2013-09-11 17:03:00,70.8,58.9,29.91,WNW,303,5.0,10.0,66,0.00,,,0.00,Wunderground v.1.15,2013-09-12 00:03:00,
2013-09-11 17:08:00,70.4,58.5,29.91,WNW,300,5.0,5.0,66,0.00,,,0.00,Wunderground v.1.15,2013-09-12 00:08:00,
2013-09-11 17:15:00,70.4,58.9,29.91,West,279,4.0,9.0,67,0.00,,,0.00,Wunderground v.1.15,2013-09-12 00:15:00,
2013-09-11 17:21:00,70.6,59.1,29.91,West,270,4.0,8.0,67,0.00,,,0.00,Wunderground v.1.15,2013-09-12 00:21:00,
2013-09-11 17:26:00,70.1,58.6,29.91,WNW,293,4.0,8.0,67,0.00,,,0.00,Wunderground v.1.15,2013-09-12 00:26:00,
2013-09-11 17:32:00,69.4,58.4,29.91,NW,310,4.0,8.0,68,0.00,,,0.00,Wunderground v.1.15,2013-09-12 00:32:00,
2013-09-11 17:39:00,68.9,58.3,29.91,West,272,4.0,6.0,69,0.00,,,0.00,Wunderground v.1.15,2013-09-12 00:39:00,
2013-09-11 17:45:00,68.6,58.4,29.91,NW,319,3.0,6.0,70,0.00,,,0.00,Wunderground v.1.15,2013-09-12 00:45:00,
2013-09-11 17:51:00,68.1,58.3,29.91,West,275,4.0,4.0,71,0.00,,,0.00,Wunderground v.1.15,2013-09-12 00:51:00,
2013-09-11 17:57:00,67.8,58.1,29.91,WNW,296,3.0,5.0,71,0.00,,,0.00,Wunderground v.1.15,2013-09-12 00:57:00,
2013-09-11 18:03:00,67.3,58.0,29.91,WNW,289,3.0,5.0,72,0.00,,,0.00,Wunderground v.1.15,2013-09-12 01:03:00,
2013-09-11 18:09:00,66.6,58.1,29.91,NW,318,4.0,4.0,74,0.00,,,0.00,Wunderground v.1.15,2013-09-12 01:09:00,
2013-09-11 18:14:00,66.1,57.9,29.91,WNW,295,4.0,6.0,75,0.00,,,0.00,Wunderground v.1.15,2013-09-12 01:14:00,
2013-09-11 18:21:00,66.0,57.5,29.91,West,268,3.0,5.0,74,0.00,,,0.00,Wunderground v.1.15,2013-09-12 01:21:00,
2013-09-11 18:27:00,65.6,57.8,29.91,WNW,293,3.0,5.0,76,0.00,,,0.00,Wunderground v.1.15,2013-09-12 01:27:00,
2013-09-11 18:33:00,65.6,57.8,29.91,WSW,247,2.0,3.0,76,0.00,,,0.00,Wunderground v.1.15,2013-09-12 01:33:00,
2013-09-11 18:38:00,65.5,57.7,29.91,WNW,297,1.0,2.0,76,0.00,,,0.00,Wunderground v.1.15,2013-09-12 01:38:00,
2013-09-11 18:45:00,65.3,57.5,29.91,West,266,2.0,3.0,76,0.00,,,0.00,Wunderground v.1.15,2013-09-12 01:45:00,
2013-09-11 18:51:00,65.2,57.8,29.91,WSW,257,2.0,4.0,77,0.00,,,0.00,Wunderground v.1.15,2013-09-12 01:51:00,
2013-09-11 18:57:00,64.8,57.8,29.91,NW,313,3.0,4.0,78,0.00,,,0.00,Wunderground v.1.15,2013-09-12 01:57:00,
2013-09-11 19:03:00,64.3,57.3,29.91,WSW,250,4.0,8.0,78,0.00,,,0.00,Wunderground v.1.15,2013-09-12 02:03:00,
2013-09-11 19:09:00,64.0,57.4,29.92,West,261,4.0,4.0,79,0.00,,,0.00,Wunderground v.1.15,2013-09-12 02:09:00,
2013-09-11 19:14:00,63.9,57.3,29.92,SSW,195,2.0,4.0,79,0.00,,,0.00,Wunderground v.1.15,2013-09-12 02:14:00,
2013-09-11 19:21:00,63.9,57.6,29.91,WNW,286,2.0,5.0,80,0.00,,,0.00,Wunderground v.1.15,2013-09-12 02:21:00,
2013-09-11 19:27:00,63.7,57.4,29.91,West,279,2.0,5.0,80,0.00,,,0.00,Wunderground v.1.15,2013-09-12 02:27:00,
2013-09-11 19:33:00,63.5,57.6,29.91,SW,219,2.0,3.0,81,0.00,,,0.00,Wunderground v.1.15,2013-09-12 02:33:00,
2013-09-11 19:38:00,63.5,57.6,29.92,West,265,2.0,2.0,81,0.00,,,0.00,Wunderground v.1.15,2013-09-12 02:38:00,
2013-09-11 19:45:00,63.4,57.5,29.92,West,278,2.0,3.0,81,0.00,,,0.00,Wunderground v.1.15,2013-09-12 02:45:00,
2013-09-11 19:51:00,63.4,57.5,29.92,SW,223,2.0,2.0,81,0.00,,,0.00,Wunderground v.1.15,2013-09-12 02:51:00,
2013-09-11 19:56:00,63.4,57.5,29.92,WNW,298,2.0,3.0,81,0.00,,,0.00,Wunderground v.1.15,2013-09-12 02:56:00,
2013-09-11 20:02:00,63.4,57.5,29.92,WNW,294,1.0,2.0,81,0.00,,,0.00,Wunderground v.1.15,2013-09-12 03:02:00,
2013-09-11 20:04:00,62.7,57.8,29.93,NW,309,0.0,0.0,84,0.00,,,0.00,Wunderground v.1.15,2013-09-12 03:04:00,
2013-09-11 20:06:00,62.7,57.8,29.93,NW,323,0.0,0.0,84,0.00,,,0.00,Wunderground v.1.15,2013-09-12 03:06:00,
2013-09-11 20:08:00,62.6,57.7,29.93,WNW,288,0.0,0.0,84,0.00,,,0.00,Wunderground v.1.15,2013-09-12 03:08:00,
2013-09-11 20:09:00,63.4,57.5,29.92,WNW,290,1.0,2.0,81,0.00,,,0.00,Wunderground v.1.15,2013-09-12 03:09:00,
2013-09-11 20:10:00,62.6,57.7,29.93,WNW,288,0.0,0.0,84,0.00,,,0.00,Wunderground v.1.15,2013-09-12 03:10:00,
2013-09-11 20:12:00,62.6,57.7,29.93,WNW,292,0.0,0.0,84,0.00,,,0.00,Wunderground v.1.15,2013-09-12 03:12:00,
2013-09-11 20:14:00,62.6,57.7,29.93,North,360,0.0,3.0,84,0.00,,,0.00,Wunderground v.1.15,2013-09-12 03:14:00,
2013-09-11 20:15:00,63.2,57.6,29.92,WNW,295,2.0,3.0,82,0.00,,,0.00,Wunderground v.1.15,2013-09-12 03:15:00,
2013-09-11 20:16:00,62.6,57.7,29.93,WNW,286,1.0,4.0,84,0.00,,,0.00,Wunderground v.1.15,2013-09-12 03:16:00,
2013-09-11 20:18:00,62.4,57.8,29.93,SW,227,1.0,4.0,85,0.00,,,0.00,Wunderground v.1.15,2013-09-12 03:18:00,
2013-09-11 20:20:00,63.1,57.5,29.92,West,272,2.0,3.0,82,0.00,,,0.00,Wunderground v.1.15,2013-09-12 03:20:00,
2013-09-11 20:22:00,62.4,57.8,29.93,SW,233,1.0,1.0,85,0.00,,,0.00,Wunderground v.1.15,2013-09-12 03:22:00,
2013-09-11 20:24:00,62.3,57.7,29.93,WNW,293,1.0,1.0,85,0.00,,,0.00,Wunderground v.1.15,2013-09-12 03:24:00,
2013-09-11 20:26:00,62.3,57.7,29.93,WNW,293,1.0,1.0,85,0.00,,,0.00,Wunderground v.1.15,2013-09-12 03:26:00,
2013-09-11 20:27:00,62.9,57.3,29.93,SSW,205,2.0,3.0,82,0.00,,,0.00,Wunderground v.1.15,2013-09-12 03:27:00,
2013-09-11 20:28:00,62.3,57.7,29.93,WNW,293,0.0,1.0,85,0.00,,,0.00,Wunderground v.1.15,2013-09-12 03:28:00,
2013-09-11 20:30:00,62.3,57.7,29.93,WNW,293,0.0,0.0,85,0.00,,,0.00,Wunderground v.1.15,2013-09-12 03:30:00,
2013-09-11 20:32:00,62.3,57.7,29.93,WNW,302,0.0,0.0,85,0.00,,,0.00,Wunderground v.1.15,2013-09-12 03:32:00,
2013-09-11 20:33:00,62.7,57.5,29.93,West,273,1.0,2.0,83,0.00,,,0.00,Wunderground v.1.15,2013-09-12 03:33:00,
2013-09-11 20:34:00,62.3,57.7,29.93,NNW,340,0.0,1.0,85,0.00,,,0.00,Wunderground v.1.15,2013-09-12 03:34:00,
2013-09-11 20:36:00,62.3,57.7,29.93,NNW,340,0.0,1.0,85,0.00,,,0.00,Wunderground v.1.15,2013-09-12 03:36:00,
2013-09-11 20:38:00,62.3,57.7,29.93,WNW,298,0.0,1.0,85,0.00,,,0.00,Wunderground v.1.15,2013-09-12 03:38:00,
2013-09-11 20:39:00,62.7,57.5,29.93,West,267,0.0,0.0,83,0.00,,,0.00,Wunderground v.1.15,2013-09-12 03:39:00,
2013-09-11 20:40:00,62.3,57.7,29.93,NW,322,1.0,5.0,85,0.00,,,0.00,Wunderground v.1.15,2013-09-12 03:40:00,
2013-09-11 20:42:00,62.3,58.1,29.93,NW,315,1.0,5.0,86,0.00,,,0.00,Wunderground v.1.15,2013-09-12 03:42:00,
2013-09-11 20:44:00,62.7,57.5,29.93,WNW,287,0.0,2.0,83,0.00,,,0.00,Wunderground v.1.15,2013-09-12 03:44:00,
2013-09-11 20:46:00,62.1,57.9,29.93,NW,321,2.0,5.0,86,0.00,,,0.00,Wunderground v.1.15,2013-09-12 03:46:00,
2013-09-11 20:48:00,62.1,57.9,29.93,WNW,292,2.0,5.0,86,0.00,,,0.00,Wunderground v.1.15,2013-09-12 03:48:00,
2013-09-11 20:50:00,62.1,57.9,29.93,West,279,2.0,2.0,86,0.00,,,0.00,Wunderground v.1.15,2013-09-12 03:50:00,
2013-09-11 20:51:00,62.7,57.5,29.93,WNW,287,0.0,1.0,83,0.00,,,0.00,Wunderground v.1.15,2013-09-12 03:51:00,
2013-09-11 20:52:00,62.0,57.8,29.93,NW,306,2.0,2.0,86,0.00,,,0.00,Wunderground v.1.15,2013-09-12 03:52:00,
2013-09-11 20:54:00,62.0,57.8,29.93,WNW,298,2.0,2.0,86,0.00,,,0.00,Wunderground v.1.15,2013-09-12 03:54:00,
2013-09-11 20:56:00,62.0,57.8,29.93,WNW,286,2.0,3.0,86,0.00,,,0.00,Wunderground v.1.15,2013-09-12 03:56:00,
2013-09-11 20:57:00,62.7,57.8,29.93,NW,323,0.0,1.0,84,0.00,,,0.00,Wunderground v.1.15,2013-09-12 03:57:00,
2013-09-11 20:58:00,62.0,57.8,29.93,West,279,1.0,3.0,86,0.00,,,0.00,Wunderground v.1.15,2013-09-12 03:58:00,
2013-09-11 21:00:00,62.0,57.8,29.93,WSW,252,1.0,1.0,86,0.00,,,0.00,Wunderground v.1.15,2013-09-12 04:00:00,
2013-09-11 21:02:00,61.8,57.6,29.93,WNW,288,2.0,2.0,86,0.00,,,0.00,Wunderground v.1.15,2013-09-12 04:02:00,
2013-09-11 21:04:00,61.8,57.9,29.93,WNW,290,2.0,2.0,87,0.00,,,0.00,Wunderground v.1.15,2013-09-12 04:04:00,
2013-09-11 21:06:00,61.8,57.9,29.93,West,280,2.0,2.0,87,0.00,,,0.00,Wunderground v.1.15,2013-09-12 04:06:00,
2013-09-11 21:08:00,61.8,57.9,29.93,WNW,296,2.0,3.0,87,0.00,,,0.00,Wunderground v.1.15,2013-09-12 04:08:00,
2013-09-11 21:10:00,61.8,57.9,29.93,WNW,292,2.0,2.0,87,0.00,,,0.00,Wunderground v.1.15,2013-09-12 04:10:00,
2013-09-11 21:12:00,61.8,57.9,29.93,WNW,292,1.0,2.0,87,0.00,,,0.00,Wunderground v.1.15,2013-09-12 04:12:00,
2013-09-11 21:14:00,61.8,57.9,29.93,WNW,292,1.0,2.0,87,0.00,,,0.00,Wunderground v.1.15,2013-09-12 04:14:00,
2013-09-11 21:16:00,61.8,57.9,29.93,WNW,295,1.0,3.0,87,0.00,,,0.00,Wunderground v.1.15,2013-09-12 04:16:00,
2013-09-11 21:18:00,61.6,57.7,29.93,NW,307,1.0,3.0,87,0.00,,,0.00,Wunderground v.1.15,2013-09-12 04:18:00,
2013-09-11 21:20:00,61.6,57.7,29.93,NW,305,1.0,3.0,87,0.00,,,0.00,Wunderground v.1.15,2013-09-12 04:20:00,
2013-09-11 21:22:00,61.6,57.7,29.93,West,281,1.0,3.0,87,0.00,,,0.00,Wunderground v.1.15,2013-09-12 04:22:00,
2013-09-11 21:24:00,61.6,57.7,29.93,West,265,2.0,3.0,87,0.00,,,0.00,Wunderground v.1.15,2013-09-12 04:24:00,
2013-09-11 21:26:00,61.6,57.7,29.93,West,265,2.0,3.0,87,0.00,,,0.00,Wunderground v.1.15,2013-09-12 04:26:00,
2013-09-11 21:28:00,61.5,57.6,29.93,NW,313,1.0,3.0,87,0.00,,,0.00,Wunderground v.1.15,2013-09-12 04:28:00,
2013-09-11 21:30:00,61.5,57.6,29.93,SE,141,1.0,2.0,87,0.00,,,0.00,Wunderground v.1.15,2013-09-12 04:30:00,
2013-09-11 21:32:00,61.5,57.6,29.93,WNW,300,1.0,3.0,87,0.00,,,0.00,Wunderground v.1.15,2013-09-12 04:32:00,
2013-09-11 21:34:00,61.5,57.6,29.93,WSW,251,2.0,3.0,87,0.00,,,0.00,Wunderground v.1.15,2013-09-12 04:34:00,
2013-09-11 21:36:00,61.5,57.6,29.93,WSW,247,2.0,4.0,87,0.00,,,0.00,Wunderground v.1.15,2013-09-12 04:36:00,
2013-09-11 21:38:00,61.3,57.4,29.93,WSW,250,3.0,4.0,87,0.00,,,0.00,Wunderground v.1.15,2013-09-12 04:38:00,
2013-09-11 21:40:00,61.3,57.4,29.93,WNW,289,3.0,3.0,87,0.00,,,0.00,Wunderground v.1.15,2013-09-12 04:40:00,
2013-09-11 21:42:00,61.3,57.4,29.94,WNW,296,3.0,3.0,87,0.00,,,0.00,Wunderground v.1.15,2013-09-12 04:42:00,
2013-09-11 21:44:00,61.2,57.3,29.93,NW,304,3.0,3.0,87,0.00,,,0.00,Wunderground v.1.15,2013-09-12 04:44:00,
2013-09-11 21:46:00,61.2,57.3,29.93,SW,215,2.0,3.0,87,0.00,,,0.00,Wunderground v.1.15,2013-09-12 04:46:00,
2013-09-11 21:48:00,61.2,57.3,29.93,West,275,2.0,3.0,87,0.00,,,0.00,Wunderground v.1.15,2013-09-12 04:48:00,
2013-09-11 21:50:00,61.2,57.6,29.93,WNW,295,2.0,3.0,88,0.00,,,0.00,Wunderground v.1.15,2013-09-12 04:50:00,
2013-09-11 21:52:00,61.2,57.6,29.93,West,276,2.0,3.0,88,0.00,,,0.00,Wunderground v.1.15,2013-09-12 04:52:00,
2013-09-11 21:54:00,61.2,57.6,29.93,WNW,302,2.0,3.0,88,0.00,,,0.00,Wunderground v.1.15,2013-09-12 04:54:00,
2013-09-11 21:56:00,61.0,57.4,29.93,WNW,290,1.0,3.0,88,0.00,,,0.00,Wunderground v.1.15,2013-09-12 04:56:00,
2013-09-11 21:58:00,61.0,57.4,29.93,West,266,1.0,3.0,88,0.00,,,0.00,Wunderground v.1.15,2013-09-12 04:58:00,
2013-09-11 22:00:00,61.0,57.4,29.93,West,266,1.0,1.0,88,0.00,,,0.00,Wunderground v.1.15,2013-09-12 05:00:00,
2013-09-11 22:02:00,61.0,57.4,29.93,West,266,1.0,1.0,88,0.00,,,0.00,Wunderground v.1.15,2013-09-12 05:02:00,
2013-09-11 22:04:00,61.0,57.4,29.93,West,266,1.0,1.0,88,0.00,,,0.00,Wunderground v.1.15,2013-09-12 05:04:00,
2013-09-11 22:06:00,61.0,57.4,29.93,NE,38,0.0,1.0,88,0.00,,,0.00,Wunderground v.1.15,2013-09-12 05:06:00,
2013-09-11 22:08:00,61.0,57.4,29.93,NE,36,0.0,1.0,88,0.00,,,0.00,Wunderground v.1.15,2013-09-12 05:08:00,
2013-09-11 22:10:00,61.0,57.4,29.93,NNE,26,0.0,0.0,88,0.00,,,0.00,Wunderground v.1.15,2013-09-12 05:10:00,
2013-09-11 22:12:00,61.0,57.4,29.93,NNE,26,0.0,0.0,88,0.00,,,0.00,Wunderground v.1.15,2013-09-12 05:12:00,
2013-09-11 22:14:00,61.2,57.6,29.93,NW,316,0.0,4.0,88,0.00,,,0.00,Wunderground v.1.15,2013-09-12 05:14:00,
2013-09-11 22:16:00,61.0,57.4,29.93,North,355,0.0,4.0,88,0.00,,,0.00,Wunderground v.1.15,2013-09-12 05:16:00,
2013-09-11 22:18:00,61.0,57.4,29.93,WNW,300,1.0,4.0,88,0.00,,,0.00,Wunderground v.1.15,2013-09-12 05:18:00,
2013-09-11 22:20:00,61.0,57.4,29.93,SW,226,1.0,1.0,88,0.00,,,0.00,Wunderground v.1.15,2013-09-12 05:20:00,
2013-09-11 22:22:00,61.0,57.4,29.93,SW,226,1.0,1.0,88,0.00,,,0.00,Wunderground v.1.15,2013-09-12 05:22:00,
2013-09-11 22:24:00,61.0,57.4,29.93,WSW,238,1.0,1.0,88,0.00,,,0.00,Wunderground v.1.15,2013-09-12 05:24:00,
2013-09-11 22:26:00,61.0,57.4,29.92,West,279,1.0,1.0,88,0.00,,,0.00,Wunderground v.1.15,2013-09-12 05:26:00,
2013-09-11 22:30:00,61.0,57.4,29.92,West,279,0.0,0.0,88,0.00,,,0.00,Wunderground v.1.15,2013-09-12 05:30:00,
2013-09-11 22:34:00,61.0,57.7,29.93,West,279,0.0,0.0,89,0.00,,,0.00,Wunderground v.1.15,2013-09-12 05:34:00,
2013-09-11 22:38:00,61.0,57.7,29.93,WNW,290,0.0,2.0,89,0.00,,,0.00,Wunderground v.1.15,2013-09-12 05:38:00,
2013-09-11 22:40:00,61.0,57.7,29.93,WNW,286,1.0,3.0,89,0.00,,,0.00,Wunderground v.1.15,2013-09-12 05:40:00,
2013-09-11 22:44:00,61.0,57.7,29.93,WNW,298,1.0,3.0,89,0.00,,,0.00,Wunderground v.1.15,2013-09-12 05:44:00,
2013-09-11 22:46:00,61.0,57.7,29.93,WNW,288,1.0,3.0,89,0.00,,,0.00,Wunderground v.1.15,2013-09-12 05:46:00,
2013-09-11 22:52:00,61.0,57.7,29.93,West,264,0.0,1.0,89,0.00,,,0.00,Wunderground v.1.15,2013-09-12 05:52:00,
2013-09-11 22:54:00,60.9,57.6,29.93,West,264,1.0,1.0,89,0.00,,,0.00,Wunderground v.1.15,2013-09-12 05:54:00,
2013-09-11 22:56:00,60.9,57.6,29.93,West,264,1.0,1.0,89,0.00,,,0.00,Wunderground v.1.15,2013-09-12 05:56:00,
2013-09-11 22:58:00,60.9,57.6,29.93,West,264,0.0,1.0,89,0.00,,,0.00,Wunderground v.1.15,2013-09-12 05:58:00,
2013-09-11 23:00:00,60.9,57.6,29.93,West,264,0.0,0.0,89,0.00,,,0.00,Wunderground v.1.15,2013-09-12 06:00:00,
2013-09-11 23:18:00,61.0,57.7,29.93,NNE,16,0.0,0.0,89,0.00,,,0.00,Wunderground v.1.15,2013-09-12 06:18:00,
2013-09-11 23:22:00,60.9,57.6,29.93,NW,313,0.0,3.0,89,0.00,,,0.00,Wunderground v.1.15,2013-09-12 06:22:00,
2013-09-11 23:27:00,61.0,57.4,29.93,West,279,1.0,1.0,88,0.00,,,0.00,Wunderground v.1.15,2013-09-12 06:27:00,
2013-09-11 23:30:00,60.9,57.6,29.93,West,264,1.0,1.0,89,0.00,,,0.00,Wunderground v.1.15,2013-09-12 06:30:00,
2013-09-11 23:35:00,61.0,57.7,29.93,WNW,298,0.0,0.0,89,0.00,,,0.00,Wunderground v.1.15,2013-09-12 06:35:00,
2013-09-11 23:38:00,60.7,57.4,29.93,North,10,2.0,2.0,89,0.00,,,0.00,Wunderground v.1.15,2013-09-12 06:38:00,
2013-09-11 23:41:00,61.0,57.7,29.93,WNW,298,1.0,3.0,89,0.00,,,0.00,Wunderground v.1.15,2013-09-12 06:41:00,
2013-09-11 23:44:00,60.7,57.4,29.93,WNW,290,0.0,1.0,89,0.00,,,0.00,Wunderground v.1.15,2013-09-12 06:44:00,
2013-09-11 23:46:00,60.7,57.4,29.93,WNW,291,0.0,1.0,89,0.00,,,0.00,Wunderground v.1.15,2013-09-12 06:46:00,
2013-09-11 23:47:00,61.0,57.7,29.93,WNW,287,1.0,3.0,89,0.00,,,0.00,Wunderground v.1.15,2013-09-12 06:47:00,
2013-09-11 23:50:00,60.9,57.6,29.93,WNW,291,0.0,0.0,89,0.00,,,0.00,Wunderground v.1.15,2013-09-12 06:50:00,
2013-09-11 23:56:00,60.7,57.7,29.93,WNW,291,0.0,0.0,90,0.00,,,0.00,Wunderground v.1.15,2013-09-12 06:56:00,